Вернуться в каталог

CZ-4B R/B

АктивенPO
NORAD 61938·ROCKET BODY·🇨🇳 China

Запущен Nov 13, 2024 с Taiyuan Satellite Launch Center

Loading…

Ближайшие Пролёты (ближайшие 24 часа)

TLE

СвежийSource: Space-Track

Эпоха: Sep 14, 2026, 03:25 UTC

1 61938U 24208C   26257.14273841  .00006924  00000-0  19224-3 0  9997
2 61938  97.9335 314.3176 0121315 211.8376 147.5491 15.30110985101872

Отслеживайте CZ-4B R/B в реальном времени с AllMySat

Download on the App Store